User: anonymous   Login
Location: *
(53.9002°N, 27.5624°E)
Time: 17:58:53
(UTC+00:00)
Language:

ASTEX 1 - Orbit

View from above orbital plane
View from above orbital plane
View from above satellite
View from above satellite

Ground track
Ground track

The orbit data is extracted from the following two-line orbital elements,

1  5560U 71089A   20025.09418811  .00000065  00000-0  17711-4 0  9994
2  5560  92.7152 150.4409 0018054  59.8396 300.4594 14.48050595538872
Epoch (UTC): 25 January 2020 02:15:37
Eccentricity: 0.0018054
inclination: 92.7152°
perigee height: 719 km
apogee height: 745 km
right ascension of ascending node: 150.4409°
argument of perigee: 59.8396°
revolutions per day: 14.48050595
mean anomaly at epoch: 300.4594°
orbit number at epoch: 53887

The dashed part of the orbit path shows where the satellite is in the earth's shadow,  

DLR